EW4071 Weather Reports


time (UTC)temp
C
wind
direction
speed
KPH
gust
KPH
rain 1hr
cm
rain 24hr
cm
rain mn
cm
humidity
%
barometer
mb
20260505171555 11 14 8.0 37.0 0.00 0.00 0.00 72 1006.5
20260505170052 11 67 6.4 35.4 0.00 0.00 0.00 72 1006.2
20260505164550 11 122 4.8 29.0 0.00 0.00 0.00 74 1005.8
20260505163046 11 48 12.9 40.2 0.00 0.00 0.00 73 1005.2
20260505161551 11 74 9.7 38.6 0.00 0.00 0.00 76 1005.1
20260505153036 11 61 11.3 30.6 0.00 0.00 0.00 82 1004.2
20260505151533 11 23 1.6 37.0 0.00 0.00 0.00 83 1004.2
20260505124601 12 82 11.3 30.6 0.00 0.00 0.00 83 1001.2
20260505123102 13 313 8.0 38.6 0.00 0.00 0.00 83 1001.2
20260505121556 13 93 6.4 29.0 0.00 0.00 0.00 84 1000.7
20260505120054 13 15 4.8 38.6 0.00 0.00 0.00 84 1000.9
20260505114555 13 52 9.7 35.4 0.00 0.00 0.00 84 1000.4
20260505113049 14 65 1.6 25.7 0.00 0.00 0.00 84 1000.3
20260505111541 15 32 6.4 27.4 0.00 0.00 0.00 84 1000.2
20260505101547 19 37 8.0 24.1 0.00 0.00 0.00 76 999.3
20260505100050 19 319 0.0 14.5 0.00 0.00 0.00 76 999.1
20260505094527 19 157 0.0 22.5 0.00 0.00 0.00 76 998.8
20260505093024 20 120 3.2 25.7 0.00 0.00 0.00 76 998.9
20260505091520 20 114 0.0 0.0 0.00 0.00 0.00 78 998.7
20260505090019 19 73 0.0 14.5 0.00 0.00 0.00 79 998.5
20260505084519 19 65 0.0 19.3 0.00 0.00 0.00 80 998.1
20260505083021 19 128 0.0 0.0 0.00 0.00 0.00 81 997.7
20260505081517 19 107 0.0 4.8 0.00 0.00 0.00 80 997.8
20260505080016 19 143 0.0 0.0 0.00 0.00 0.00 80 997.9
20260505074516 19 122 1.6 16.1 0.00 0.00 0.00 80 997.5
20260505073030 19 144 0.0 8.0 0.00 0.00 0.00 79 997.8
20260505071510 19 87 0.0 14.5 0.00 0.00 0.00 78 997.9
20260505070013 20 123 0.0 19.3 0.00 0.00 0.00 77 998.2
20260505064509 20 278 0.0 19.3 0.00 0.00 0.00 77 998.2
20260505063005 20 125 0.0 14.5 0.00 0.00 0.00 76 998.3
20260505061505 20 117 0.0 20.9 0.00 0.00 0.00 75 998.3
20260505060104 20 126 3.2 22.5 0.00 0.00 0.00 74 998.4
20260505054558 20 145 3.2 16.1 0.00 0.00 0.00 74 998.5
20260505053053 21 114 0.0 17.7 0.00 0.00 0.00 73 998.5
20260505051550 21 132 0.0 14.5 0.00 0.00 0.00 73 998.8
20260505041545 21 135 0.0 0.0 0.00 0.00 0.00 74 999.1
20260505040045 21 347 0.0 0.0 0.00 0.00 0.00 75 999.2
20260505034548 21 81 0.0 9.7 0.00 0.00 0.00 75 998.8
20260505033043 21 233 0.0 1.6 0.00 0.00 0.00 75 998.7
20260505031548 21 162 0.0 0.0 0.00 0.00 0.00 74 998.8
20260505030043 22 63 0.0 0.0 0.00 0.00 0.00 73 998.7
20260505024541 22 122 0.0 12.9 0.00 0.00 0.00 72 998.5
20260505023042 22 104 3.2 17.7 0.00 0.00 0.00 71 998.2
20260505021541 22 142 1.6 19.3 0.00 0.00 0.00 70 998.4
20260505020039 23 111 3.2 16.1 0.00 0.00 0.00 70 998.4
20260505014537 23 138 1.6 12.9 0.00 0.00 0.00 68 998.4
20260505013032 23 142 1.6 20.9 0.00 0.00 0.00 67 998.5
20260505011535 23 140 3.2 17.7 0.00 0.00 0.00 66 998.5
20260505010043 23 132 3.2 20.9 0.00 0.00 0.00 65 998.3
20260505004527 24 152 0.0 17.7 0.00 0.00 0.00 64 998.3
20260505003026 24 155 0.0 24.1 0.00 0.00 0.00 64 998.3
20260505001526 25 126 12.9 20.9 0.00 0.00 0.00 62 998.4
20260505000038 25 157 9.7 19.3 0.00 0.00 0.00 60 998.4
20260504234523 25 130 3.2 19.3 0.00 0.00 0.00 60 998.6
20260504233022 25 154 11.3 24.1 0.00 0.00 0.00 58 998.7
20260504231518 26 173 11.3 24.1 0.00 0.00 0.00 57 998.8
20260504230029 26 140 12.9 22.5 0.00 0.00 0.00 56 999.1
20260504224516 26 172 14.5 33.8 0.00 0.00 0.00 54 999.1
20260504223015 26 131 8.0 27.4 0.00 0.00 0.00 54 999.1
20260504221534 26 153 14.5 27.4 0.00 0.00 0.00 53 999.1
20260504220013 26 204 9.7 27.4 0.00 0.00 0.00 52 999.3
20260504214511 26 209 14.5 30.6 0.00 0.00 0.00 50 999.5
20260504213010 26 213 12.9 25.7 0.00 0.00 0.00 49 999.5
20260504211509 26 158 12.9 27.4 0.00 0.00 0.00 49 999.6
20260504210008 26 223 14.5 29.0 0.00 0.00 0.00 49 999.9
20260504204506 27 227 12.9 27.4 0.00 0.00 0.00 48 999.9
20260504203008 26 197 8.0 37.0 0.00 0.00 0.00 48 1000.0
20260504201504 27 167 12.9 32.2 0.00 0.00 0.00 48 1000.2
20260504200002 27 225 20.9 33.8 0.00 0.00 0.00 47 1000.5
20260504194601 27 192 19.3 33.8 0.00 0.00 0.00 48 1000.5
20260504193101 27 218 6.4 27.4 0.00 0.00 0.00 48 1000.7
20260504191559 26 227 14.5 27.4 0.00 0.00 0.00 48 1000.7
20260504190052 26 220 14.5 33.8 0.00 0.00 0.00 47 1000.8
20260504184549 26 228 17.7 37.0 0.00 0.00 0.00 48 1001.0
20260504183047 26 209 17.7 37.0 0.00 0.00 0.00 46 1001.0
20260504181548 26 228 16.1 27.4 0.00 0.00 0.00 46 1001.5
20260504180048 26 185 4.8 25.7 0.00 0.00 0.00 47 1001.6
20260504174543 25 174 20.9 32.2 0.00 0.00 0.00 48 1001.8
20260504173037 26 251 17.7 30.6 0.00 0.00 0.00 47 1001.8